This is the latest recevied weather packets stored in our database for station/object KI4MRC. If no packets are shown the sender has not sent any weather packets the latest 10 day(s).
| Time | Temp. | Humidity | Pressure | Rain* | Wind** | Luminosity | Snow |
|---|---|---|---|---|---|---|---|
| 1777335942 | 24.44° C | 78% | 1016.2 hPa | 0 mm | - | 0 W/m² | - |
| 1777335639 | 24.44° C | 78% | 1015.9 hPa | 0 mm | - | 0 W/m² | - |
| 1777335336 | 25° C | 77% | 1015.9 hPa | 0 mm | - | 0 W/m² | - |
| 1777335033 | 25° C | 77% | 1016 hPa | 0 mm | - | 0 W/m² | - |
| 1777334731 | 25° C | 77% | 1016 hPa | 0 mm | - | 0 W/m² | - |
| 1777334428 | 25° C | 76% | 1015.9 hPa | 0 mm | - | 1 W/m² | - |
| 1777334125 | 25° C | 76% | 1016 hPa | 0 mm | - | 1 W/m² | - |
| 1777333824 | 25° C | 75% | 1015.7 hPa | 0 mm | - | 3 W/m² | - |
| 1777333521 | 25° C | 76% | 1015.7 hPa | 0 mm | - | 5 W/m² | - |
| 1777333218 | 25.56° C | 76% | 1016 hPa | 0 mm | - | 7 W/m² | - |
| 1777332916 | 25.56° C | 76% | 1015.7 hPa | 0 mm | - | 10 W/m² | - |
| 1777332615 | 25.56° C | 77% | 1015.6 hPa | 0 mm | - | 13 W/m² | - |
| 1777332310 | 25.56° C | 76% | 1015.6 hPa | 0 mm | - | 15 W/m² | - |
| 1777332007 | 25.56° C | 76% | 1015.6 hPa | 0 mm | - | 18 W/m² | - |
| 1777331705 | 25.56° C | 76% | 1015.5 hPa | 0 mm | - | 21 W/m² | - |
| 1777331401 | 25.56° C | 76% | 1015.5 hPa | 0 mm | - | 26 W/m² | - |
| 1777331099 | 25.56° C | 76% | 1015.4 hPa | 0 mm | - | 25 W/m² | - |
| 1777330796 | 26.11° C | 76% | 1015.4 hPa | 0 mm | - | 29 W/m² | - |
| 1777330493 | 26.11° C | 74% | 1015.5 hPa | 0 mm | - | 29 W/m² | - |
| 1777330190 | 26.67° C | 74% | 1015.3 hPa | 0 mm | - | 33 W/m² | - |
| 1777329888 | 26.11° C | 74% | 1015.2 hPa | 0 mm | - | 44 W/m² | - |
| 1777329587 | 26.11° C | 74% | 1015.3 hPa | 0 mm | - | 39 W/m² | - |
| 1777329284 | 26.67° C | 73% | 1015.3 hPa | 0 mm | - | 38 W/m² | - |
| 1777328982 | 27.22° C | 72% | 1015.1 hPa | 0 mm | - | 34 W/m² | - |
| 1777328680 | 27.22° C | 72% | 1015.2 hPa | 0 mm | - | 97 W/m² | - |
* Rain latest hour (hover to see other rain measurements)
** Current wind speed in m/s (hover to see current wind gust speed)